QPF
0.03 0.08 0.18 0.30 0.35 0.70 0.72 0.50 0.23 0.11 0.07 0.04 0.03 0.02 0.01 0.00 0.00 0.00 0.00 0.00 0.00 0.00 0.00 0.00 0.01 0.01 0.02 0.02 0.01 0.01 0.01 0.01 0.00 0.00 0.00 0.00 0.00 0.00 0.00 0.00 0.00 0.00 0.00
0.01 0.03 0.07 0.10 0.09 0.14 0.19 0.22 0.21 0.14 0.09 0.08 0.06 0.04 0.02 0.01 0.01 0.02 0.02 0.01 0.01 0.00 0.00 0.01 0.00 0.01 0.01 0.00 0.01 0.01 0.00 0.00 0.00 0.00 0.00 0.00 0.00 0.00 0.00 0.00 0.00 0.00 0.00
0.00 0.00 0.01 0.01 0.01 0.03 0.07 0.09 0.10 0.10 0.08 0.08 0.05 0.06 0.06 0.06 0.07 0.08 0.08 0.03 0.01 0.00 0.00 0.00 0.00 0.00 0.00 0.00 0.01 0.01 0.01 0.01 0.00 0.00 0.01 0.01 0.00 0.00 0.00 0.00 0.00 0.00 0.00
0.00 0.00 0.00 0.00 0.00 0.01 0.02 0.03 0.04 0.05 0.07 0.08 0.08 0.09 0.10 0.10 0.09 0.06 0.05 0.03 0.01 0.00 0.00 0.00 0.00 0.00 0.00 0.00 0.00 0.01 0.01 0.01 0.00 0.00 0.00 0.00 0.00 0.01 0.00 0.00 0.00 0.00 0.00
0.00 0.00 0.00 0.00 0.00 0.00 0.01 0.01 0.02 0.02 0.03 0.03 0.03 0.04 0.05 0.03 0.02 0.01 0.01 0.01 0.00 0.00 0.00 0.00 0.00 0.01 0.01 0.01 0.01 0.01 0.01 0.01 0.01 0.01 0.00 0.00 0.00 0.01 0.01 0.00 0.00 0.00 0.00
0.00 0.00 0.00 0.00 0.00 0.00 0.00 0.01 0.01 0.01 0.01 0.01 0.02 0.01 0.01 0.01 0.00 0.00 0.00 0.00 0.00 0.00 0.00 0.00 0.00 0.01 0.01 0.01 0.02 0.02 0.02 0.02 0.03 0.02 0.02 0.02 0.02 0.02 0.02 0.01 0.01 0.00 0.00
0.00 0.00 0.00 0.00 0.00 0.00 0.00 0.00 0.00 0.00 0.00 0.00 0.00 0.00 0.00 0.00 0.00 0.00 0.00 0.00 0.00 0.00 0.00 0.00 0.00 0.00 0.01 0.01 0.01 0.02 0.02 0.02 0.03 0.03 0.03 0.03 0.03 0.03 0.03 0.03 0.02 0.01 0.01
0.00 0.00 0.00 0.00 0.00 0.00 0.00 0.00 0.00 0.00 0.00 0.00 0.00 0.00 0.00 0.00 0.00 0.00 0.00 0.00 0.00 0.00 0.00 0.00 0.00 0.01 0.01 0.01 0.02 0.02 0.02 0.03 0.04 0.03 0.04 0.05 0.04 0.04 0.05 0.05 0.05 0.04 0.02
0.00 0.00 0.00 0.00 0.00 0.00 0.00 0.00 0.00 0.00 0.00 0.00 0.00 0.00 0.00 0.00 0.00 0.00 0.00 0.00 0.00 0.00 0.00 0.00 0.01 0.01 0.01 0.02 0.03 0.03 0.03 0.04 0.04 0.04 0.04 0.04 0.04 0.05 0.05 0.05 0.06 0.07 0.06
0.00 0.00 0.00 0.00 0.00 0.00 0.00 0.00 0.00 0.00 0.00 0.00 0.00 0.00 0.00 0.00 0.00 0.01 0.01 0.01 0.01 0.01 0.01 0.01 0.02 0.02 0.02 0.03 0.04 0.04 0.04 0.04 0.04 0.04 0.04 0.04 0.04 0.05 0.04 0.05 0.05 0.07 0.08
0.00 0.00 0.00 0.00 0.00 0.00 0.00 0.00 0.00 0.00 0.00 0.00 0.00 0.00 0.00 0.01 0.01 0.01 0.01 0.02 0.02 0.02 0.02 0.02 0.03 0.03 0.03 0.04 0.05 0.04 0.04 0.03 0.03 0.03 0.04 0.04 0.04 0.04 0.04 0.04 0.05 0.06 0.09
0.00 0.00 0.00 0.00 0.00 0.00 0.00 0.00 0.00 0.00 0.00 0.00 0.00 0.00 0.01 0.01 0.01 0.02 0.02 0.02 0.03 0.03 0.03 0.03 0.03 0.03 0.04 0.04 0.04 0.03 0.02 0.03 0.03 0.03 0.04 0.03 0.03 0.03 0.04 0.04 0.05 0.06 0.07
0.00 0.00 0.00 0.00 0.00 0.00 0.00 0.00 0.00 0.00 0.00 0.00 0.00 0.01 0.01 0.02 0.02 0.03 0.03 0.04 0.04 0.04 0.04 0.04 0.05 0.05 0.04 0.04 0.03 0.02 0.01 0.02 0.02 0.03 0.04 0.04 0.04 0.04 0.04 0.05 0.05 0.06 0.07
0.00 0.00 0.00 0.00 0.00 0.00 0.00 0.00 0.00 0.00 0.00 0.00 0.00 0.01 0.02 0.03 0.03 0.03 0.04 0.04 0.04 0.04 0.04 0.04 0.04 0.04 0.03 0.02 0.01 0.00 0.01 0.02 0.02 0.03 0.04 0.05 0.05 0.06 0.06 0.05 0.05 0.06 0.07
0.00 0.00 0.00 0.00 0.00 0.00 0.00 0.00 0.00 0.00 0.00 0.01 0.01 0.01 0.02 0.03 0.03 0.04 0.04 0.05 0.04 0.03 0.03 0.03 0.03 0.03 0.02 0.00 0.00 0.00 0.00 0.01 0.02 0.03 0.05 0.06 0.06 0.06 0.05 0.03 0.04 0.06 0.08
0.00 0.00 0.00 0.00 0.00 0.00 0.00 0.00 0.00 0.00 0.01 0.01 0.01 0.01 0.02 0.02 0.03 0.04 0.04 0.04 0.04 0.03 0.03 0.02 0.02 0.02 0.01 0.00 0.00 0.00 0.00 0.01 0.03 0.05 0.06 0.05 0.05 0.03 0.02 0.02 0.04 0.06 0.07
0.00 0.00 0.00 0.00 0.00 0.00 0.00 0.00 0.00 0.00 0.01 0.01 0.01 0.01 0.01 0.02 0.03 0.03 0.03 0.03 0.03 0.03 0.03 0.03 0.02 0.02 0.01 0.00 0.00 0.00 0.00 0.02 0.05 0.07 0.07 0.05 0.02 0.01 0.01 0.02 0.04 0.06 0.08
0.00 0.00 0.00 0.00 0.00 0.00 0.00 0.00 0.00 0.00 0.00 0.01 0.01 0.01 0.01 0.01 0.02 0.02 0.03 0.03 0.03 0.04 0.04 0.03 0.02 0.02 0.01 0.00 0.00 0.00 0.00 0.02 0.03 0.05 0.06 0.04 0.01 0.01 0.02 0.04 0.05 0.05 0.06
0.00 0.00 0.00 0.00 0.00 0.00 0.00 0.00 0.00 0.00 0.00 0.00 0.00 0.00 0.00 0.01 0.01 0.02 0.03 0.04 0.04 0.04 0.03 0.02 0.01 0.02 0.01 0.00 0.00 0.00 0.00 0.01 0.01 0.02 0.03 0.02 0.00 0.02 0.05 0.07 0.09 0.09 0.08
0.00 0.00 0.00 0.00 0.00 0.00 0.00 0.01 0.01 0.01 0.00 0.00 0.00 0.00 0.00 0.01 0.01 0.02 0.04 0.04 0.04 0.03 0.02 0.01 0.01 0.01 0.01 0.00 0.00 0.00 0.00 0.00 0.00 0.01 0.02 0.01 0.01 0.03 0.06 0.10 0.12 0.13 0.13
0.00 0.00 0.00 0.00 0.00 0.00 0.00 0.01 0.01 0.01 0.00 0.00 0.00 0.00 0.00 0.00 0.00 0.02 0.03 0.03 0.02 0.02 0.01 0.01 0.01 0.01 0.00 0.00 0.00 0.00 0.00 0.00 0.00 0.01 0.01 0.01 0.03 0.04 0.07 0.11 0.13 0.17 0.18
0.00 0.00 0.00 0.00 0.00 0.00 0.00 0.01 0.01 0.01 0.00 0.00 0.01 0.01 0.00 0.00 0.00 0.01 0.02 0.01 0.01 0.01 0.00 0.00 0.00 0.00 0.00 0.00 0.00 0.00 0.00 0.00 0.00 0.01 0.02 0.03 0.04 0.06 0.10 0.12 0.16 0.21 0.23
0.00 0.00 0.00 0.00 0.00 0.00 0.00 0.01 0.01 0.00 0.01 0.01 0.01 0.01 0.00 0.00 0.00 0.00 0.01 0.00 0.00 0.00 0.00 0.00 0.00 0.00 0.00 0.00 0.00 0.00 0.00 0.00 0.00 0.02 0.05 0.04 0.04 0.09 0.14 0.16 0.20 0.22 0.23
0.00 0.00 0.00 0.00 0.00 0.00 0.00 0.00 0.00 0.00 0.01 0.01 0.01 0.00 0.00 0.00 0.00 0.00 0.00 0.00 0.00 0.00 0.00 0.00 0.00 0.00 0.01 0.00 0.00 0.00 0.00 0.00 0.00 0.03 0.05 0.04 0.05 0.10 0.17 0.20 0.22 0.23 0.24
0.00 0.00 0.00 0.00 0.00 0.00 0.00 0.00 0.00 0.00 0.00 0.01 0.00 0.00 0.00 0.00 0.00 0.00 0.00 0.00 0.00 0.00 0.00 0.00 0.00 0.01 0.01 0.00 0.00 0.00 0.00 0.00 0.01 0.03 0.03 0.02 0.03 0.08 0.14 0.19 0.21 0.22 0.23
0.00 0.00 0.00 0.00 0.00 0.00 0.00 0.00 0.00 0.00 0.00 0.00 0.00 0.00 0.00 0.00 0.00 0.00 0.00 0.00 0.00 0.00 0.00 0.00 0.00 0.00 0.00 0.00 0.00 0.00 0.00 0.00 0.01 0.02 0.02 0.02 0.04 0.08 0.12 0.15 0.18 0.19 0.21
MSLP
1010.66 1011.31 1011.95 1012.56 1013.12 1013.62 1014.05 1014.42 1014.71 1014.91 1015.03 1015.07 1015.04 1014.96 1014.86 1014.78 1014.74 1014.77 1014.87 1015.03 1015.24 1015.46 1015.67 1015.84 1015.97 1016.04 1016.07 1016.08 1016.06 1016.04 1016.00 1015.94 1015.82 1015.62 1015.33 1014.93 1014.42 1013.85 1013.22 1012.59 1012.00 1011.49 1011.09
1011.66 1012.33 1012.95 1013.51 1014.00 1014.42 1014.77 1015.06 1015.28 1015.45 1015.55 1015.58 1015.55 1015.47 1015.36 1015.26 1015.18 1015.15 1015.19 1015.29 1015.45 1015.63 1015.82 1015.99 1016.11 1016.19 1016.23 1016.23 1016.21 1016.17 1016.10 1016.00 1015.84 1015.60 1015.27 1014.83 1014.30 1013.68 1013.02 1012.36 1011.73 1011.18 1010.73
1012.58 1013.25 1013.85 1014.35 1014.77 1015.10 1015.37 1015.59 1015.77 1015.92 1016.02 1016.07 1016.07 1016.01 1015.92 1015.81 1015.71 1015.64 1015.62 1015.66 1015.75 1015.88 1016.02 1016.16 1016.27 1016.34 1016.37 1016.37 1016.34 1016.28 1016.18 1016.05 1015.86 1015.59 1015.23 1014.77 1014.22 1013.60 1012.94 1012.27 1011.63 1011.07 1010.59
1013.35 1014.02 1014.59 1015.05 1015.41 1015.68 1015.88 1016.05 1016.19 1016.33 1016.45 1016.54 1016.58 1016.58 1016.53 1016.44 1016.34 1016.24 1016.17 1016.14 1016.15 1016.20 1016.28 1016.36 1016.44 1016.49 1016.50 1016.49 1016.45 1016.38 1016.26 1016.11 1015.89 1015.61 1015.23 1014.78 1014.24 1013.63 1012.99 1012.35 1011.74 1011.18 1010.68
1013.94 1014.61 1015.17 1015.61 1015.93 1016.15 1016.31 1016.44 1016.57 1016.71 1016.86 1017.00 1017.11 1017.17 1017.17 1017.12 1017.02 1016.90 1016.78 1016.67 1016.60 1016.57 1016.56 1016.58 1016.60 1016.62 1016.61 1016.59 1016.54 1016.46 1016.33 1016.16 1015.94 1015.65 1015.28 1014.84 1014.33 1013.77 1013.18 1012.59 1012.01 1011.46 1010.97
1014.36 1015.04 1015.61 1016.05 1016.36 1016.56 1016.70 1016.82 1016.94 1017.10 1017.28 1017.46 1017.63 1017.75 1017.80 1017.78 1017.70 1017.55 1017.38 1017.21 1017.05 1016.93 1016.83 1016.77 1016.74 1016.71 1016.68 1016.64 1016.58 1016.49 1016.36 1016.19 1015.96 1015.67 1015.33 1014.92 1014.46 1013.96 1013.43 1012.90 1012.37 1011.85 1011.36
1014.61 1015.33 1015.93 1016.40 1016.72 1016.94 1017.08 1017.20 1017.33 1017.50 1017.70 1017.92 1018.13 1018.29 1018.38 1018.39 1018.30 1018.14 1017.92 1017.68 1017.44 1017.23 1017.05 1016.92 1016.82 1016.75 1016.69 1016.63 1016.56 1016.46 1016.32 1016.14 1015.91 1015.63 1015.31 1014.94 1014.53 1014.10 1013.65 1013.18 1012.71 1012.23 1011.76
1014.73 1015.50 1016.15 1016.66 1017.03 1017.28 1017.45 1017.58 1017.73 1017.90 1018.12 1018.35 1018.58 1018.76 1018.87 1018.88 1018.78 1018.59 1018.34 1018.04 1017.73 1017.44 1017.19 1016.99 1016.84 1016.73 1016.64 1016.56 1016.46 1016.34 1016.18 1015.99 1015.75 1015.47 1015.16 1014.83 1014.47 1014.10 1013.72 1013.33 1012.92 1012.49 1012.03
1014.76 1015.58 1016.28 1016.86 1017.28 1017.58 1017.80 1017.96 1018.13 1018.31 1018.53 1018.76 1018.97 1019.14 1019.24 1019.23 1019.11 1018.89 1018.59 1018.24 1017.89 1017.55 1017.25 1017.01 1016.82 1016.68 1016.56 1016.44 1016.31 1016.16 1015.97 1015.74 1015.47 1015.18 1014.86 1014.55 1014.23 1013.91 1013.59 1013.26 1012.91 1012.53 1012.10
1014.74 1015.59 1016.36 1017.00 1017.49 1017.85 1018.12 1018.33 1018.51 1018.70 1018.91 1019.11 1019.30 1019.43 1019.48 1019.43 1019.27 1019.02 1018.69 1018.31 1017.93 1017.57 1017.26 1017.00 1016.79 1016.62 1016.47 1016.33 1016.16 1015.95 1015.70 1015.41 1015.09 1014.76 1014.42 1014.10 1013.79 1013.51 1013.23 1012.95 1012.65 1012.30 1011.91
1014.71 1015.60 1016.41 1017.10 1017.65 1018.08 1018.40 1018.66 1018.87 1019.06 1019.25 1019.42 1019.55 1019.62 1019.62 1019.51 1019.31 1019.02 1018.67 1018.28 1017.90 1017.55 1017.24 1016.99 1016.79 1016.61 1016.45 1016.26 1016.04 1015.77 1015.45 1015.08 1014.68 1014.28 1013.89 1013.54 1013.22 1012.93 1012.67 1012.41 1012.14 1011.82 1011.46
1014.73 1015.63 1016.46 1017.18 1017.79 1018.27 1018.65 1018.95 1019.19 1019.39 1019.56 1019.69 1019.76 1019.76 1019.69 1019.52 1019.26 1018.94 1018.58 1018.20 1017.84 1017.52 1017.25 1017.03 1016.84 1016.68 1016.50 1016.28 1016.01 1015.67 1015.26 1014.80 1014.31 1013.82 1013.36 1012.94 1012.57 1012.26 1011.98 1011.72 1011.45 1011.14 1010.80
1014.86 1015.74 1016.57 1017.30 1017.93 1018.45 1018.88 1019.22 1019.48 1019.69 1019.84 1019.92 1019.93 1019.87 1019.72 1019.48 1019.18 1018.83 1018.46 1018.10 1017.78 1017.51 1017.29 1017.12 1016.97 1016.82 1016.64 1016.40 1016.07 1015.66 1015.17 1014.61 1014.02 1013.44 1012.88 1012.38 1011.95 1011.58 1011.26 1010.96 1010.66 1010.35 1010.00
1015.14 1015.98 1016.77 1017.49 1018.12 1018.66 1019.10 1019.47 1019.76 1019.96 1020.09 1020.13 1020.09 1019.95 1019.73 1019.43 1019.09 1018.71 1018.35 1018.01 1017.73 1017.51 1017.35 1017.23 1017.13 1017.01 1016.83 1016.57 1016.21 1015.73 1015.17 1014.52 1013.84 1013.16 1012.52 1011.93 1011.41 1010.96 1010.57 1010.21 1009.86 1009.51 1009.15
1015.60 1016.38 1017.10 1017.77 1018.37 1018.90 1019.35 1019.72 1020.01 1020.21 1020.31 1020.31 1020.21 1020.01 1019.72 1019.37 1018.98 1018.59 1018.23 1017.92 1017.67 1017.51 1017.40 1017.34 1017.28 1017.19 1017.02 1016.75 1016.36 1015.85 1015.22 1014.51 1013.75 1012.99 1012.26 1011.58 1010.98 1010.44 1009.96 1009.52 1009.11 1008.70 1008.31
1016.21 1016.91 1017.56 1018.16 1018.71 1019.19 1019.62 1019.97 1020.24 1020.42 1020.49 1020.44 1020.28 1020.02 1019.68 1019.28 1018.86 1018.45 1018.08 1017.79 1017.59 1017.46 1017.41 1017.39 1017.37 1017.30 1017.15 1016.88 1016.47 1015.94 1015.28 1014.52 1013.72 1012.90 1012.09 1011.34 1010.65 1010.02 1009.45 1008.93 1008.44 1007.97 1007.54
1016.94 1017.56 1018.12 1018.64 1019.11 1019.53 1019.90 1020.21 1020.44 1020.57 1020.59 1020.49 1020.28 1019.97 1019.57 1019.13 1018.68 1018.26 1017.90 1017.62 1017.45 1017.36 1017.34 1017.35 1017.36 1017.31 1017.18 1016.91 1016.51 1015.97 1015.30 1014.52 1013.69 1012.83 1011.98 1011.16 1010.39 1009.69 1009.04 1008.43 1007.87 1007.36 1006.91
1017.71 1018.25 1018.73 1019.15 1019.53 1019.87 1020.16 1020.40 1020.56 1020.63 1020.59 1020.43 1020.17 1019.80 1019.37 1018.90 1018.43 1018.01 1017.66 1017.40 1017.25 1017.19 1017.19 1017.23 1017.26 1017.23 1017.10 1016.86 1016.46 1015.93 1015.26 1014.49 1013.64 1012.76 1011.88 1011.01 1010.19 1009.42 1008.70 1008.04 1007.44 1006.90 1006.44
1018.44 1018.91 1019.30 1019.63 1019.92 1020.17 1020.37 1020.52 1020.59 1020.58 1020.47 1020.25 1019.93 1019.53 1019.07 1018.58 1018.12 1017.71 1017.38 1017.16 1017.03 1016.99 1017.02 1017.08 1017.12 1017.11 1016.99 1016.75 1016.38 1015.86 1015.20 1014.43 1013.59 1012.70 1011.79 1010.90 1010.04 1009.22 1008.46 1007.77 1007.14 1006.60 1006.17
1019.05 1019.47 1019.79 1020.04 1020.23 1020.38 1020.49 1020.54 1020.52 1020.42 1020.22 1019.94 1019.58 1019.15 1018.68 1018.21 1017.77 1017.40 1017.11 1016.93 1016.84 1016.84 1016.90 1016.97 1017.02 1017.02 1016.91 1016.68 1016.31 1015.80 1015.16 1014.40 1013.56 1012.66 1011.74 1010.82 1009.94 1009.10 1008.32 1007.62 1007.01 1006.50 1006.13
1019.52 1019.88 1020.14 1020.32 1020.43 1020.49 1020.50 1020.45 1020.33 1020.14 1019.87 1019.54 1019.14 1018.70 1018.25 1017.82 1017.43 1017.12 1016.90 1016.78 1016.74 1016.79 1016.88 1016.98 1017.04 1017.04 1016.94 1016.71 1016.34 1015.84 1015.19 1014.44 1013.59 1012.69 1011.76 1010.83 1009.93 1009.08 1008.30 1007.63 1007.06 1006.62 1006.32
1019.82 1020.14 1020.35 1020.47 1020.52 1020.50 1020.41 1020.27 1020.06 1019.79 1019.46 1019.08 1018.67 1018.24 1017.83 1017.46 1017.15 1016.92 1016.79 1016.75 1016.79 1016.89 1017.02 1017.14 1017.22 1017.22 1017.12 1016.88 1016.51 1015.99 1015.34 1014.58 1013.73 1012.82 1011.88 1010.94 1010.04 1009.20 1008.45 1007.81 1007.31 1006.96 1006.76
1019.98 1020.27 1020.45 1020.52 1020.51 1020.42 1020.26 1020.04 1019.75 1019.42 1019.04 1018.64 1018.23 1017.84 1017.48 1017.19 1016.98 1016.86 1016.83 1016.88 1017.01 1017.17 1017.34 1017.49 1017.58 1017.57 1017.45 1017.20 1016.81 1016.27 1015.61 1014.83 1013.97 1013.05 1012.11 1011.18 1010.29 1009.47 1008.77 1008.19 1007.77 1007.51 1007.42
1020.08 1020.33 1020.47 1020.50 1020.44 1020.30 1020.08 1019.79 1019.45 1019.07 1018.67 1018.27 1017.89 1017.54 1017.26 1017.07 1016.96 1016.95 1017.03 1017.18 1017.38 1017.61 1017.82 1017.98 1018.07 1018.05 1017.90 1017.62 1017.20 1016.64 1015.96 1015.17 1014.30 1013.38 1012.45 1011.54 1010.68 1009.90 1009.26 1008.75 1008.41 1008.24 1008.25
1020.14 1020.35 1020.46 1020.46 1020.36 1020.18 1019.92 1019.59 1019.22 1018.82 1018.41 1018.02 1017.68 1017.41 1017.21 1017.12 1017.12 1017.22 1017.40 1017.63 1017.90 1018.17 1018.40 1018.56 1018.63 1018.58 1018.40 1018.08 1017.62 1017.04 1016.34 1015.54 1014.67 1013.77 1012.87 1011.99 1011.19 1010.48 1009.90 1009.47 1009.21 1009.12 1009.20
1020.23 1020.40 1020.46 1020.43 1020.31 1020.10 1019.81 1019.46 1019.08 1018.68 1018.29 1017.94 1017.66 1017.46 1017.35 1017.35 1017.45 1017.64 1017.90 1018.20 1018.51 1018.80 1019.03 1019.17 1019.20 1019.10 1018.87 1018.50 1018.00 1017.39 1016.67 1015.88 1015.04 1014.18 1013.33 1012.52 1011.79 1011.16 1010.66 1010.32 1010.13 1010.09 1010.21
Thickness
5760 5753 5744 5736 5724 5712 5702 5700 5700 5702 5703 5700 5696 5692 5688 5687 5684 5680 5674 5668 5662 5656 5650 5645 5640 5638 5634 5630 5626 5623 5619 5615 5612 5608 5608 5611 5612 5612 5612 5612 5612 5612 5612
5750 5743 5735 5725 5717 5709 5702 5696 5694 5692 5690 5687 5683 5681 5678 5675 5670 5664 5659 5654 5648 5643 5639 5633 5627 5623 5619 5616 5612 5607 5601 5598 5597 5590 5585 5585 5590 5593 5596 5595 5594 5593 5590
5740 5735 5728 5721 5714 5706 5700 5694 5689 5684 5679 5675 5672 5667 5661 5655 5650 5645 5641 5638 5634 5630 5625 5619 5614 5609 5604 5600 5596 5590 5584 5580 5578 5573 5564 5560 5563 5569 5573 5573 5572 5570 5568
5732 5724 5717 5711 5705 5698 5693 5686 5680 5674 5669 5664 5658 5651 5643 5637 5633 5630 5626 5623 5620 5615 5610 5605 5599 5594 5589 5583 5579 5576 5567 5561 5558 5556 5551 5546 5543 5540 5546 5557 5554 5551 5551
5717 5710 5704 5699 5694 5689 5683 5676 5670 5664 5658 5652 5645 5638 5631 5625 5621 5618 5615 5611 5607 5601 5595 5589 5583 5576 5570 5565 5560 5555 5549 5542 5537 5534 5532 5529 5526 5524 5522 5535 5537 5536 5538
5706 5699 5693 5687 5682 5677 5671 5664 5656 5650 5644 5638 5632 5625 5618 5613 5608 5605 5600 5596 5590 5585 5578 5571 5563 5557 5551 5545 5540 5535 5530 5525 5520 5516 5513 5510 5508 5508 5507 5511 5515 5517 5520
5697 5689 5681 5674 5667 5662 5655 5649 5642 5635 5630 5624 5618 5611 5605 5600 5596 5591 5584 5577 5572 5566 5559 5550 5543 5536 5530 5524 5520 5516 5513 5509 5505 5502 5499 5497 5494 5493 5492 5492 5496 5498 5502
5692 5682 5673 5664 5656 5648 5641 5635 5628 5622 5616 5611 5605 5599 5593 5587 5580 5573 5565 5558 5552 5545 5537 5529 5521 5514 5509 5505 5502 5500 5498 5497 5493 5491 5489 5487 5486 5484 5482 5481 5480 5483 5488
5683 5673 5663 5655 5646 5638 5630 5623 5616 5610 5604 5598 5592 5586 5579 5570 5563 5555 5547 5540 5531 5523 5516 5508 5502 5498 5494 5492 5490 5489 5488 5486 5485 5483 5481 5479 5479 5477 5476 5474 5472 5470 5475
5674 5663 5654 5646 5638 5630 5622 5614 5607 5600 5593 5586 5578 5571 5562 5554 5546 5538 5529 5521 5513 5506 5500 5495 5491 5488 5486 5484 5483 5482 5480 5479 5477 5476 5475 5474 5472 5471 5470 5469 5468 5466 5466
5663 5654 5646 5638 5630 5621 5613 5604 5596 5588 5579 5571 5563 5554 5546 5538 5530 5522 5515 5508 5502 5497 5493 5489 5485 5483 5481 5479 5477 5475 5473 5472 5470 5469 5469 5468 5467 5466 5466 5465 5464 5463 5462
5656 5647 5637 5628 5618 5609 5600 5591 5582 5573 5565 5557 5548 5539 5530 5523 5516 5510 5505 5500 5496 5491 5487 5484 5481 5479 5477 5473 5469 5466 5464 5463 5463 5463 5463 5464 5464 5464 5463 5462 5462 5462 5462
5647 5637 5627 5617 5607 5597 5587 5577 5568 5559 5550 5542 5534 5525 5517 5511 5506 5502 5498 5494 5490 5486 5483 5479 5475 5473 5469 5463 5458 5454 5453 5453 5455 5458 5459 5461 5462 5462 5462 5462 5462 5462 5463
5635 5626 5616 5606 5596 5585 5574 5564 5555 5546 5538 5529 5521 5514 5508 5503 5500 5497 5493 5489 5485 5481 5477 5473 5468 5464 5458 5450 5445 5443 5443 5446 5449 5453 5456 5459 5461 5462 5462 5462 5463 5463 5463
5624 5616 5605 5594 5584 5573 5562 5552 5543 5534 5525 5518 5512 5507 5503 5500 5496 5493 5489 5485 5480 5476 5470 5465 5460 5453 5446 5436 5432 5432 5435 5438 5444 5450 5454 5457 5460 5461 5460 5461 5462 5462 5463
5615 5605 5594 5583 5571 5559 5549 5540 5532 5523 5516 5511 5507 5504 5500 5497 5494 5490 5485 5480 5474 5468 5462 5456 5449 5442 5433 5423 5420 5421 5424 5431 5439 5445 5449 5453 5457 5457 5458 5459 5461 5463 5466
5603 5592 5580 5569 5558 5547 5537 5529 5522 5516 5511 5506 5503 5501 5497 5494 5490 5486 5481 5474 5468 5461 5453 5447 5440 5432 5423 5415 5412 5411 5416 5424 5431 5436 5442 5447 5451 5452 5454 5459 5464 5469 5473
5588 5577 5567 5557 5547 5538 5529 5521 5516 5511 5508 5504 5501 5497 5493 5490 5485 5481 5475 5468 5461 5454 5446 5440 5432 5424 5416 5409 5405 5404 5409 5417 5421 5427 5434 5439 5443 5447 5449 5457 5466 5473 5479
5572 5563 5554 5546 5537 5529 5521 5514 5510 5508 5505 5502 5498 5494 5490 5485 5481 5476 5469 5462 5455 5448 5441 5434 5426 5419 5411 5404 5399 5398 5403 5408 5413 5420 5427 5432 5436 5441 5446 5456 5465 5474 5481
5558 5550 5543 5536 5528 5520 5513 5509 5507 5505 5502 5499 5496 5492 5487 5482 5478 5472 5464 5457 5450 5443 5435 5428 5420 5412 5405 5398 5394 5392 5397 5401 5406 5413 5420 5426 5430 5437 5444 5453 5463 5471 5477
5545 5539 5532 5526 5518 5512 5507 5505 5505 5503 5500 5498 5495 5491 5486 5480 5476 5469 5461 5453 5446 5438 5431 5422 5414 5406 5399 5393 5389 5388 5390 5393 5399 5407 5412 5419 5425 5434 5442 5450 5459 5467 5473
5534 5528 5523 5517 5511 5506 5504 5503 5503 5502 5500 5498 5494 5490 5485 5480 5475 5467 5459 5451 5442 5434 5426 5416 5408 5400 5393 5387 5384 5383 5384 5388 5394 5400 5405 5412 5420 5430 5439 5448 5456 5464 5470
5525 5519 5515 5511 5506 5504 5503 5503 5502 5502 5500 5497 5494 5490 5486 5480 5474 5466 5457 5448 5438 5427 5418 5408 5400 5393 5386 5381 5377 5378 5381 5385 5389 5394 5400 5408 5417 5427 5435 5443 5451 5459 5464
5517 5513 5510 5507 5504 5505 5505 5504 5503 5501 5499 5496 5494 5490 5486 5479 5472 5465 5455 5444 5431 5417 5406 5395 5388 5382 5377 5372 5370 5371 5376 5380 5385 5391 5398 5406 5414 5422 5430 5437 5445 5451 5454
5510 5507 5505 5504 5505 5505 5506 5506 5503 5501 5498 5495 5492 5487 5483 5476 5468 5459 5444 5430 5410 5398 5388 5379 5375 5371 5367 5362 5361 5362 5368 5371 5378 5385 5395 5402 5409 5417 5424 5431 5437 5442 5446
5505 5503 5503 5504 5505 5507 5507 5505 5502 5500 5496 5492 5487 5481 5477 5470 5463 5452 5433 5415 5401 5388 5378 5370 5365 5364 5358 5358 5359 5361 5365 5369 5375 5383 5390 5396 5402 5410 5417 5424 5429 5434 5438